Location: ?????? ??????
(44.3742°N, 135.2221°E)
Time: 10:36:11
(UTC+00:00)

ARIANE 5 R/B - Pass Details

Date: 19 May 2025
Orbit: 614 x 648 km, 98.0° (Epoch: 11 June)

Event Time Altitude Azimuth Distance (km) Brightness Sun altitude
Exits shadow 13:16:49 31° 83° (E) 1,087 3.6 -21.9°
Maximum altitude 13:17:19 32° 68° (ENE) 1,065 3.7 -21.9°
Drops below altitude 10° 13:21:11 10° 6° (N) 2,000 6.0 -22.2°
Sets 13:23:33 0° 356° (N) 2,916 7.2 -22.4°
